User: anonymous   Login
Location: Newark
(5.8900°S, 42.6378°W)
Time: 16:43:40
(UTC+00:00)
Language:

Tiros 1 despin weight - Orbit

View from above orbital plane
View from above orbital plane
View from above satellite
View from above satellite

Ground track
Ground track

The orbit data is extracted from the following two-line orbital elements,

1   115U 60002D   19295.56462634 +.00000081 +00000-0 +36664-4 0  9995
2   115 048.1678 342.8772 0035264 275.7547 083.9345 14.83494831156349
Epoch (UTC): 22 October 2019 13:33:03
Eccentricity: 0.0035264
inclination: 48.1678°
perigee height: 593 km
apogee height: 643 km
right ascension of ascending node: 342.8772°
argument of perigee: 275.7547°
revolutions per day: 14.83494831
mean anomaly at epoch: 83.9345°
orbit number at epoch: 15634

The dashed part of the orbit path shows where the satellite is in the earth's shadow,  

DLR